Middletown, OH

6:02 AM EST on January 21, 2017 (GMT -0500)
Middletown

Weather History for KMWO - May, 2013

Change the Weather History Date:

Tuesday, May 28, 2013

  Actual Average (KFFO) Record (KFFO)
Temperature  
Mean Temperature 74 °F -  
Max Temperature 81 °F 71 °F 93 °F (2012)
Min Temperature 67 °F 51 °F 41 °F (2008)
Cooling Degree Days 9    
Growing Degree Days 24 (Base 50)    
Moisture  
Dew Point 65 °F    
Average Humidity 72    
Maximum Humidity 87    
Minimum Humidity 56    
Precipitation  
Precipitation 0.00 in - - ()
Sea Level Pressure  
Sea Level Pressure 29.99 in    
Wind  
Wind Speed 10 mph (SW)    
Max Wind Speed 22 mph    
Max Gust Speed 30 mph    
Visibility 10 miles    
Events Rain    
Averages and records for this station are not official NWS values.
T = Trace of Precipitation, MM = Missing Value Source: NWS Daily Summary

Daily Weather History Graph

Daily Weather History Graph

Search for Another Location

Airport or City:

Trip Planner

Search our weather history database for the weather conditions in past years. The results will help you decide how hot, cold, wet, or windy it might be!

Date:

Astronomy

May. 28, 2013 Rise Set
Actual Time 6:14 AM EDT 8:56 PM EDT
Civil Twilight 5:42 AM EDT 9:27 PM EDT
Nautical Twilight 5:03 AM EDT 10:07 PM EDT
Astronomical Twilight 4:18 AM EDT 10:52 PM EDT
Moon No Moon Rise 10:00 AM EDT (5/28)
Length of Visible Light 15h 45m
Length of Day
14h 42m
Waning Gibbous, 83% of the Moon is Illuminated
May 28
Waning Gibbous
May 31
Last Quarter
Jun 8
New
Jun 16
First Quarter
Jun 23
Full

Hourly Weather History & Observations

Time (EDT) Temp. Heat Index Dew Point Humidity Pressure Visibility Wind Dir Wind Speed Gust Speed Precip Events Conditions
12:15 AM 75.2 °F - 63.0 °F 66% 29.98 in 10.0 mi SW 9.2 mph - N/A   Mostly Cloudy
12:35 AM 74.7 °F - 62.4 °F 66% 29.98 in 10.0 mi SSW 10.4 mph 16.1 mph N/A   Scattered Clouds
12:55 AM 74.8 °F - 62.8 °F 66% 29.97 in 10.0 mi SW 9.2 mph - N/A   Scattered Clouds
1:15 AM 73.8 °F - 61.7 °F 66% 29.95 in 10.0 mi SSW 12.7 mph 17.3 mph N/A   Clear
1:35 AM 72.7 °F - 61.7 °F 68% 29.97 in 10.0 mi WSW 6.9 mph - N/A   Scattered Clouds
1:55 AM 72.7 °F - 62.4 °F 70% 29.98 in 10.0 mi West 5.8 mph - N/A   Scattered Clouds
2:15 AM 72.7 °F - 63.3 °F 72% 29.98 in 10.0 mi SW 8.1 mph - N/A   Clear
2:35 AM 72.7 °F - 64.8 °F 76% 29.98 in 10.0 mi SW 5.8 mph - N/A   Clear
2:55 AM 71.2 °F - 64.2 °F 78% 29.99 in 10.0 mi WSW 4.6 mph - N/A   Clear
3:15 AM 69.4 °F - 63.1 °F 80% 30.00 in 10.0 mi WSW 5.8 mph - N/A   Scattered Clouds
3:35 AM 67.6 °F - 62.6 °F 84% 30.00 in 10.0 mi SW 4.6 mph - N/A   Mostly Cloudy
3:55 AM 68.2 °F - 63.0 °F 83% 30.00 in 10.0 mi SW 4.6 mph - N/A   Overcast
4:15 AM 67.8 °F - 62.4 °F 83% 30.00 in 10.0 mi SSW 3.5 mph - N/A   Mostly Cloudy
4:35 AM 69.1 °F - 63.0 °F 81% 30.00 in 10.0 mi SSW 6.9 mph - N/A   Light Drizzle
4:55 AM 68.7 °F - 63.1 °F 82% 30.00 in 10.0 mi SSW 6.9 mph - N/A   Scattered Clouds
5:15 AM 67.6 °F - 62.8 °F 84% 30.00 in 10.0 mi SSW 5.8 mph - N/A Rain Light Rain
5:35 AM 67.6 °F - 63.1 °F 85% 30.00 in 10.0 mi SSW 5.8 mph - N/A   Mostly Cloudy
5:55 AM 67.6 °F - 63.0 °F 85% 30.01 in 10.0 mi SSW 6.9 mph - N/A   Scattered Clouds
6:15 AM 67.6 °F - 63.0 °F 85% 30.01 in 10.0 mi SSW 5.8 mph - N/A   Clear
6:35 AM 67.6 °F - 63.0 °F 85% 30.01 in 10.0 mi SSW 5.8 mph - N/A   Scattered Clouds
6:55 AM 67.6 °F - 63.7 °F 87% 30.02 in 10.0 mi South 4.6 mph - N/A   Scattered Clouds
7:15 AM 68.5 °F - 63.9 °F 85% 30.03 in 10.0 mi SSW 8.1 mph - N/A   Scattered Clouds
7:35 AM 70.2 °F - 64.9 °F 83% 30.03 in 10.0 mi SSW 6.9 mph - N/A   Scattered Clouds
7:55 AM 70.2 °F - 65.3 °F 85% 30.03 in 10.0 mi SSW 6.9 mph - N/A   Clear
8:15 AM 72.7 °F - 66.9 °F 82% 30.03 in 10.0 mi SSW 9.2 mph - N/A   Clear
8:35 AM 72.7 °F - 66.4 °F 81% 30.03 in 10.0 mi SSW 8.1 mph - N/A   Clear
8:55 AM 72.7 °F - 65.5 °F 78% 30.03 in 10.0 mi SW 9.2 mph - N/A   Clear
9:15 AM 75.2 °F - 67.3 °F 76% 30.03 in 10.0 mi SW 10.4 mph - N/A   Clear
9:35 AM 75.2 °F - 66.9 °F 75% 30.03 in 10.0 mi SW 15.0 mph 19.6 mph N/A   Clear
9:55 AM 75.2 °F - 66.4 °F 74% 30.03 in 10.0 mi SW 16.1 mph 20.7 mph N/A   Clear
10:15 AM 75.6 °F - 66.6 °F 74% 30.03 in 10.0 mi SW 16.1 mph 24.2 mph N/A   Clear
10:35 AM 77.2 °F - 67.8 °F 73% 30.03 in 10.0 mi SW 16.1 mph 20.7 mph N/A   Clear
10:55 AM 77.9 °F - 68.0 °F 71% 30.03 in 10.0 mi SW 13.8 mph 20.7 mph N/A   Clear
11:15 AM 77.9 °F - 68.2 °F 72% 30.03 in 10.0 mi SW 15.0 mph 20.7 mph N/A   Clear
11:35 AM 77.9 °F - 68.0 °F 71% 30.03 in 10.0 mi SW 15.0 mph 21.9 mph N/A   Clear
11:55 AM 77.9 °F - 68.2 °F 72% 30.03 in 10.0 mi SW 11.5 mph 21.9 mph N/A   Clear
12:15 PM 77.9 °F - 68.0 °F 71% 30.03 in 10.0 mi SW 12.7 mph 20.7 mph N/A   Clear
12:35 PM 77.9 °F - 68.5 °F 73% 30.02 in 10.0 mi SW 12.7 mph - N/A   Clear
12:55 PM 79.0 °F - 68.5 °F 70% 30.02 in 10.0 mi SW 17.3 mph 25.3 mph N/A   Scattered Clouds
1:15 PM 79.0 °F - 68.9 °F 71% 30.01 in 10.0 mi SW 15.0 mph 24.2 mph N/A   Mostly Cloudy
1:35 PM 79.7 °F - 68.7 °F 69% 30.00 in 10.0 mi SW 13.8 mph 24.2 mph N/A   Scattered Clouds
1:55 PM 79.0 °F - 68.5 °F 70% 30.00 in 10.0 mi SSW 16.1 mph 20.7 mph N/A   Mostly Cloudy
2:15 PM 79.9 °F - 69.1 °F 69% 30.00 in 10.0 mi SW 16.1 mph 24.2 mph N/A   Mostly Cloudy
2:35 PM 79.0 °F - 67.8 °F 69% 30.00 in 10.0 mi SW 18.4 mph 26.5 mph N/A   Mostly Cloudy
2:55 PM 80.2 °F 83.1 °F 68.7 °F 68% 29.99 in 10.0 mi SW 17.3 mph 24.2 mph N/A   Scattered Clouds
3:15 PM 80.2 °F 83.1 °F 68.7 °F 68% 29.98 in 10.0 mi SW 19.6 mph 24.2 mph N/A   Scattered Clouds
3:35 PM 80.2 °F 83.0 °F 68.2 °F 67% 29.98 in 10.0 mi SW 19.6 mph 27.6 mph N/A   Scattered Clouds
3:55 PM 80.2 °F 82.5 °F 66.4 °F 63% 29.97 in 10.0 mi South 21.9 mph 27.6 mph N/A   Scattered Clouds
4:15 PM 80.6 °F 82.3 °F 64.4 °F 58% 29.96 in 10.0 mi SSW 21.9 mph 29.9 mph N/A   Clear
4:35 PM 81.3 °F 82.9 °F 64.4 °F 56% 29.96 in 10.0 mi SSW 19.6 mph 28.8 mph N/A   Clear
4:55 PM 80.2 °F 81.9 °F 64.0 °F 58% 29.97 in 10.0 mi SW 21.9 mph 25.3 mph N/A   Clear
5:15 PM 80.2 °F 81.8 °F 63.5 °F 57% 29.97 in 10.0 mi SW 17.3 mph 23.0 mph N/A   Clear
5:35 PM 80.2 °F 81.9 °F 64.2 °F 58% 29.97 in 10.0 mi SSW 16.1 mph 25.3 mph N/A   Clear
5:55 PM 79.5 °F - 63.5 °F 58% 29.97 in 10.0 mi SSW 10.4 mph 24.2 mph N/A   Clear
6:15 PM 80.2 °F 81.8 °F 63.9 °F 57% 29.96 in 10.0 mi SW 13.8 mph 23.0 mph N/A   Clear
6:35 PM 79.9 °F - 63.0 °F 56% 29.95 in 10.0 mi SSW 12.7 mph 20.7 mph N/A   Clear
6:55 PM 79.0 °F - 62.6 °F 57% 29.96 in 10.0 mi SW 12.7 mph 18.4 mph N/A   Clear
7:15 PM 79.0 °F - 63.1 °F 58% 29.96 in 10.0 mi SSW 10.4 mph 18.4 mph N/A   Clear
7:35 PM 78.8 °F - 63.3 °F 59% 29.96 in 10.0 mi SSW 9.2 mph 16.1 mph N/A   Clear
7:55 PM 77.9 °F - 63.3 °F 61% 29.97 in 10.0 mi SSW 9.2 mph - N/A   Clear
8:15 PM 77.9 °F - 63.1 °F 60% 29.97 in 10.0 mi SSW 9.2 mph - N/A   Clear
8:35 PM 77.9 °F - 63.7 °F 61% 29.97 in 10.0 mi SW 8.1 mph - N/A   Clear
8:55 PM 75.2 °F - 63.7 °F 67% 29.98 in 10.0 mi SW 6.9 mph - N/A   Clear
9:15 PM 75.2 °F - 65.3 °F 71% 29.98 in 10.0 mi SSW 4.6 mph - N/A   Clear
9:35 PM 75.2 °F - 64.6 °F 69% 29.98 in 10.0 mi SSW 5.8 mph - N/A   Clear
9:55 PM 72.7 °F - 64.4 °F 75% 29.98 in 10.0 mi SW 4.6 mph - N/A   Clear
10:15 PM 72.7 °F - 63.7 °F 73% 29.98 in 10.0 mi SW 4.6 mph - N/A   Clear
10:35 PM 72.7 °F - 65.1 °F 77% 29.99 in 10.0 mi SW 5.8 mph - N/A   Clear
10:55 PM 72.7 °F - 66.2 °F 80% 29.98 in 10.0 mi SSW 5.8 mph - N/A   Clear
11:15 PM 72.7 °F - 63.9 °F 74% 29.99 in 10.0 mi SW 5.8 mph - N/A   Clear
11:35 PM 72.7 °F - 63.0 °F 71% 29.99 in 10.0 mi SSW 6.9 mph - N/A   Clear
11:55 PM 72.7 °F - 65.5 °F 78% 30.00 in 10.0 mi SW 4.6 mph - N/A   Clear